DW8454 Weather Reports


Display with metric or nautical units.
time (UTC)temp
F
wind
direction
speed
MPH
gust
MPH
rain 1hr
in
rain 24hr
in
rain mn
in
humidity
%
barometer
mb
20181016072616 40 249 2.0 5.0 0.00 0.02 0.00 68 1023.5
20181016071607 40 237 2.0 5.0 0.00 0.02 0.00 68 1023.6
20181016070547 40 251 2.0 7.0 0.00 0.02 0.00 67 1023.6
20181016065605 41 234 2.0 7.0 0.00 0.02 0.00 67 1023.5
20181016064553 41 207 2.0 5.0 0.00 0.02 0.00 67 1023.5
20181016063543 42 255 1.0 5.0 0.00 0.02 0.00 66 1023.4
20181016062511 42 213 2.0 5.0 0.00 0.02 0.00 67 1023.2
20181016061446 42 246 1.0 4.0 0.00 0.02 0.00 66 1023.2
20181016060505 43 244 1.0 4.0 0.00 0.02 0.00 66 1023.1
20181016055529 43 240 1.0 4.0 0.00 0.02 0.00 65 1023.1
20181016054535 43 233 1.0 4.0 0.00 0.02 0.00 65 1023.0
20181016053504 44 257 1.0 4.0 0.00 0.02 0.00 64 1023.1
20181016052529 44 256 1.0 4.0 0.00 0.02 0.00 64 1023.0
20181016051547 44 288 0.0 3.0 0.00 0.02 0.00 64 1023.1
20181016050553 44 287 0.0 3.0 0.00 0.02 0.00 63 1023.1
20181016045520 44 287 1.0 10.0 0.00 0.02 0.00 62 1023.2
20181016044500 44 300 3.0 10.0 0.00 0.02 0.00 62 1023.2
20181016043512 44 316 1.0 5.0 0.00 0.02 0.00 62 1023.1
20181016042531 44 300 1.0 9.0 0.00 0.02 0.00 61 1023.2
20181016041545 44 309 1.0 9.0 0.00 0.02 0.00 61 1023.3
20181016040547 44 284 3.0 11.0 0.00 0.02 0.00 61 1023.3
20181016035610 45 259 4.0 11.0 0.00 0.02 0.02 60 1023.3
20181016034627 45 286 4.0 10.0 0.00 0.02 0.02 60 1023.1
20181016033637 45 305 4.0 16.0 0.00 0.02 0.02 59 1023.1
20181016032653 45 277 5.0 16.0 0.00 0.02 0.02 59 1023.0
20181016031639 45 318 5.0 11.0 0.00 0.02 0.02 60 1023.1
20181016030614 45 286 4.0 13.0 0.00 0.02 0.02 59 1023.0
20181016025618 45 296 6.0 13.0 0.00 0.02 0.02 59 1022.9
20181016024600 46 284 5.0 13.0 0.00 0.01 0.01 61 1022.8
20181016023607 46 282 5.0 14.0 0.00 0.01 0.01 60 1022.7
20181016022554 46 303 6.0 16.0 0.00 0.01 0.01 59 1022.5
20181016021544 46 290 6.0 16.0 0.00 0.01 0.01 59 1022.4
20181016020529 46 283 5.0 15.0 0.00 0.01 0.01 58 1022.3
20181016015500 47 296 7.0 15.0 0.00 0.01 0.01 61 1022.3
20181016014451 47 311 8.0 15.0 0.00 0.01 0.01 60 1022.3
20181016013450 47 287 8.0 18.0 0.00 0.01 0.01 61 1022.1
20181016012425 48 290 9.0 18.0 0.00 0.01 0.01 60 1021.7
20181016011353 48 307 8.0 16.0 0.00 0.01 0.01 61 1021.4
20181016010326 48 290 9.0 19.0 0.00 0.01 0.01 61 1021.1
20181016005254 48 298 10.0 19.0 0.00 0.01 0.01 62 1020.8
20181016004235 48 296 7.0 17.0 0.00 0.01 0.01 63 1020.5
20181016003253 48 279 4.0 17.0 0.00 0.01 0.01 65 1020.4
20181016002242 47 305 3.0 10.0 0.00 0.01 0.01 67 1020.3
20181016001228 47 262 2.0 9.0 0.00 0.01 0.01 69 1020.1
20181016000241 47 282 5.0 9.0 0.00 0.01 0.01 69 1019.9
20181015235236 47 249 6.0 11.0 0.00 0.01 0.01 69 1019.5
20181015234222 48 273 7.0 11.0 0.00 0.01 0.01 70 1019.3
20181015233222 48 247 5.0 11.0 0.00 0.01 0.01 70 1019.2
20181015232151 48 252 5.0 11.0 0.00 0.01 0.01 70 1019.0
20181015231143 48 260 5.0 10.0 0.00 0.01 0.01 70 1018.7
20181015230205 49 252 6.0 10.0 0.00 0.01 0.01 69 1018.6
20181015225225 49 238 6.0 13.0 0.00 0.01 0.01 68 1018.6
20181015224158 49 260 7.0 13.0 0.00 0.01 0.01 68 1018.3
20181015223220 50 260 7.0 13.0 0.00 0.01 0.01 68 1018.2
20181015222228 50 277 7.0 19.0 0.00 0.01 0.01 67 1017.9
20181015221154 50 237 8.0 19.0 0.00 0.01 0.01 67 1017.9
20181015220120 50 243 7.0 16.0 0.00 0.01 0.01 66 1017.5
20181015215130 51 284 8.0 20.0 0.00 0.01 0.01 67 1017.4
20181015214147 51 284 9.0 20.0 0.00 0.01 0.01 69 1017.3
20181015213115 51 263 11.0 21.0 0.00 0.01 0.01 69 1017.2
20181015212047 52 257 9.0 21.0 0.00 0.01 0.01 71 1017.0
20181015211033 52 292 9.0 18.0 0.00 0.01 0.01 71 1016.9
20181015210030 52 271 9.0 21.0 0.00 0.01 0.01 71 1016.8
20181015205005 52 287 10.0 21.0 0.00 0.01 0.01 69 1016.6
20181015204014 53 272 9.0 18.0 0.00 0.01 0.01 70 1016.5
20181015202942 53 243 10.0 20.0 0.00 0.01 0.01 72 1016.3
20181015201944 52 265 9.0 28.0 0.00 0.01 0.01 71 1016.3
20181015200915 53 279 11.0 28.0 0.00 0.01 0.01 72 1016.3
20181015195936 53 288 11.0 22.0 0.00 0.01 0.01 72 1016.1
20181015194911 53 248 11.0 21.0 0.00 0.01 0.01 72 1016.0
20181015193933 53 286 10.0 21.0 0.00 0.01 0.01 74 1015.8
20181015192913 53 260 9.0 19.0 0.00 0.01 0.01 75 1015.6
20181015191916 54 242 10.0 19.0 0.00 0.01 0.01 73 1015.6
20181015190939 54 288 9.0 17.0 0.00 0.01 0.01 77 1015.4
20181015185918 54 265 9.0 20.0 0.00 0.01 0.01 81 1015.2
20181015184913 53 253 9.0 20.0 0.00 0.01 0.01 82 1015.0
20181015183936 53 281 8.0 18.0 0.00 0.01 0.01 84 1014.9
20181015182959 53 249 10.0 18.0 0.00 0.01 0.01 83 1015.1
20181015182018 53 269 8.0 18.0 0.00 0.01 0.01 84 1015.2
20181015181012 53 283 8.0 15.0 0.00 0.01 0.01 85 1015.0
20181015180026 53 281 8.0 12.0 0.00 0.01 0.01 85 1014.9
20181015174955 53 254 7.0 15.0 0.00 0.01 0.01 85 1014.9
20181015173933 53 257 6.0 15.0 0.00 0.01 0.01 86 1014.9
20181015172900 53 257 7.0 14.0 0.00 0.01 0.01 86 1015.0
20181015171901 53 245 7.0 14.0 0.00 0.01 0.01 87 1015.0
20181015170920 53 270 6.0 13.0 0.00 0.01 0.01 87 1014.8
20181015165902 53 252 6.0 13.0 0.00 0.01 0.01 87 1014.8
20181015164909 54 269 6.0 13.0 0.00 0.01 0.01 87 1014.9
20181015163910 54 272 6.0 13.0 0.00 0.01 0.01 88 1014.6
20181015162843 54 253 7.0 15.0 0.00 0.01 0.01 88 1014.7
20181015161904 54 261 8.0 17.0 0.00 0.01 0.01 89 1014.8
20181015160900 54 259 9.0 17.0 0.00 0.01 0.01 89 1014.5
20181015155923 54 260 7.0 16.0 0.00 0.01 0.01 89 1014.5
20181015154935 54 294 8.0 16.0 0.00 0.01 0.01 89 1014.3
20181015153918 54 241 8.0 16.0 0.00 0.00 0.01 89 1013.9
20181015152858 54 272 8.0 15.0 0.00 0.00 0.00 89 1014.0
20181015151906 54 277 5.0 15.0 0.00 0.00 0.00 89 1013.9
20181015150842 54 269 7.0 14.0 0.00 0.00 0.00 89 1013.8
20181015145843 54 286 5.0 14.0 0.00 0.00 0.00 89 1013.8
20181015144849 54 257 6.0 13.0 0.00 0.00 0.00 90 1013.6
20181015143909 54 259 7.0 12.0 0.00 0.00 0.00 89 1013.7
20181015142849 54 274 7.0 15.0 0.00 0.00 0.00 89 1013.7
20181015141836 54 273 8.0 15.0 0.00 0.00 0.00 89 1013.5
20181015140901 54 291 7.0 12.0 0.00 0.00 0.00 90 1013.6
20181015135915 54 250 6.0 12.0 0.00 0.00 0.00 90 1013.5
20181015134902 54 284 6.0 10.0 0.00 0.00 0.00 90 1013.6
20181015133909 54 280 6.0 12.0 0.00 0.00 0.00 90 1013.3
20181015132915 54 241 6.0 12.0 0.00 0.00 0.00 90 1013.3
20181015131939 55 229 6.0 10.0 0.00 0.00 0.00 90 1013.0
20181015130959 55 227 5.0 13.0 0.00 0.00 0.00 90 1012.8
20181015130009 55 250 7.0 13.0 0.00 0.00 0.00 90 1012.9
20181015124935 55 283 5.0 10.0 0.00 0.00 0.00 90 1013.0
20181015123935 55 265 5.0 10.0 0.00 0.00 0.00 90 1012.6
20181015122947 55 254 4.0 8.0 0.00 0.00 0.00 90 1012.5
20181015121943 54 261 4.0 9.0 0.00 0.00 0.00 90 1012.7
20181015120912 54 265 5.0 10.0 0.00 0.00 0.00 90 1012.6
20181015115921 54 264 4.0 10.0 0.00 0.00 0.00 90 1012.6
20181015114859 54 230 4.0 8.0 0.00 0.00 0.00 90 1012.3
20181015113843 54 243 3.0 8.0 0.00 0.00 0.00 90 1012.5
20181015112825 54 210 4.0 8.0 0.00 0.00 0.00 90 1012.4
20181015111822 54 234 4.0 8.0 0.00 0.00 0.00 90 1012.4
20181015110802 54 260 4.0 7.0 0.00 0.00 0.00 90 1012.7
20181015105814 54 243 3.0 6.0 0.00 0.00 0.00 90 1012.7
20181015104803 54 200 3.0 5.0 0.00 0.00 0.00 90 1012.6
20181015103754 54 219 3.0 5.0 0.00 0.00 0.00 89 1012.4
20181015102817 54 217 2.0 5.0 0.00 0.00 0.00 89 1012.5
20181015101817 54 156 1.0 3.0 0.00 0.00 0.00 89 1012.2
20181015095715 54 194 3.0 6.0 0.00 0.00 0.00 89 1012.7
20181015094710 54 213 2.0 4.0 0.00 0.00 0.00 89 1012.7
20181015093716 54 223 0.0 2.0 0.00 0.00 0.00 89 1012.1
20181015092728 54 217 2.0 4.0 0.00 0.00 0.00 89 1012.2
20181015091738 54 192 1.0 4.0 0.00 0.00 0.00 89 1012.3
20181015090749 54 176 1.0 3.0 0.00 0.00 0.00 89 1012.6
20181015085813 54 192 1.0 3.0 0.00 0.00 0.00 88 1012.8
20181015083554 54 206 0.0 2.0 0.00 0.00 0.00 88 1013.0
20181015082615 54 214 1.0 4.0 0.00 0.00 0.00 88 1013.0
20181015081604 54 205 1.0 3.0 0.00 0.00 0.00 88 1012.9
20181015080530 54 179 1.0 1.0 0.00 0.00 0.00 88 1013.1
20181015075504 54 232 1.0 3.0 0.00 0.00 0.00 88 1013.2
20181015074439 54 227 0.0 3.0 0.00 0.00 0.00 88 1013.2
20181015073442 54 215 1.0 0.0 0.00 0.00 0.00 87 1013.3